Location: Barruelo
(41.2448°N, 3.8231°W)
Time: 08:54:12
(UTC+00:00)

Cosmos 2227 Rocket - Pass Details

Date: 18 March 2026
Orbit: 836 x 845 km, 71.0° (Epoch: 19 April)

Event Time Altitude Azimuth Distance (km) Brightness Sun altitude
Rises 21:01:23 0° 345° (NNW) 3,413 5.9 -29.1°
Reaches altitude 10° 21:04:15 10° 358° (N) 2,475 5.0 -29.6°
Enters shadow 21:07:02 22° 23° (NNE) 1,771 3.9 -30.0°
